period_start,C,m1,H,J0,J1,J2,J3,J4,J5,JA,JB,JC,JD,JJ,JK,JN,#
2016-01-31 00:00:51,0.19,3.40,0.00,13.99,18.23,22.20,14.94,50.42,1007.84,2069.66,2424.68,2329.09,2644.89,599.88,609.34,15.59,0000 0000 0000 0000 000000
2016-01-31 00:05:52,0.21,3.41,0.00,14.02,18.24,22.20,14.97,50.33,1007.85,2069.39,2421.69,2326.79,2642.29,599.99,609.33,15.64,0000 0000 0000 0000 000000
2016-01-31 00:10:53,0.24,3.42,0.00,14.07,18.27,22.20,14.97,50.26,1007.83,2069.16,2418.55,2324.32,2639.44,600.07,609.20,15.69,0000 0000 0000 0000 000000
2016-01-31 00:15:54,0.22,3.43,0.00,14.07,18.28,22.24,14.99,50.61,1007.83,2069.04,2415.58,2321.98,2636.72,600.11,609.22,15.74,0000 0000 0000 0000 000000
2016-01-31 00:20:55,0.22,3.44,0.00,14.07,18.29,22.23,15.01,50.49,1007.83,2069.01,2412.81,2319.80,2634.18,600.04,609.30,15.79,0000 0000 0000 0000 000000
2016-01-31 00:25:57,0.21,3.46,0.00,14.09,18.32,22.23,14.94,50.52,1007.83,2069.00,2410.06,2317.70,2631.78,599.85,609.05,15.84,0000 0000 0000 0000 000000
2016-01-31 00:30:58,0.22,3.47,0.00,14.09,18.32,22.24,15.05,50.50,1007.83,2069.00,2407.17,2315.52,2629.27,600.14,609.36,15.89,0000 0000 0000 0000 000000
2016-01-31 00:35:59,0.22,3.48,0.00,14.09,18.34,22.25,15.02,50.45,1007.83,2069.00,2404.30,2313.37,2626.83,600.22,609.49,15.94,0000 0000 0000 0000 000000
2016-01-31 00:41:01,0.22,3.49,0.00,14.10,18.35,22.27,14.95,50.49,1007.81,2069.00,2401.47,2311.19,2624.36,599.88,609.05,15.99,0000 0000 0000 0000 000000
2016-01-31 00:46:02,0.22,3.50,0.00,14.13,18.37,22.29,14.97,50.51,1007.66,2068.99,2398.69,2309.02,2622.01,600.25,609.28,16.04,0000 0000 0000 0000 000000
2016-01-31 00:51:03,0.21,3.51,0.00,14.13,18.38,22.31,14.96,50.36,1007.52,2068.98,2395.82,2306.87,2619.61,599.95,608.88,16.09,0000 0000 0000 0000 000000
2016-01-31 00:56:04,0.22,3.52,0.00,14.14,18.39,22.34,15.00,50.59,1007.53,2068.96,2392.99,2304.80,2617.19,600.33,609.29,16.14,0000 0000 0000 0000 000000
2016-01-31 01:01:05,0.22,3.53,0.00,14.14,18.41,22.32,14.94,50.32,1007.53,2068.96,2390.15,2302.67,2614.68,599.86,608.77,16.19,0000 0000 0000 0000 000000
2016-01-31 01:06:07,0.18,3.54,0.00,14.14,18.42,22.30,14.94,50.28,1007.37,2068.76,2387.25,2300.51,2612.20,599.90,608.74,16.24,0000 0000 0000 0000 000000
2016-01-31 01:11:08,0.19,3.55,0.00,14.13,18.43,22.36,14.93,50.49,1007.34,2068.44,2384.32,2298.32,2609.69,599.92,608.70,16.29,0000 0000 0000 0000 000000
2016-01-31 01:16:09,0.20,3.56,0.00,14.13,18.44,22.33,14.94,50.51,1007.34,2068.24,2381.54,2296.23,2607.26,599.86,608.77,16.34,0000 0000 0000 0000 000000
2016-01-31 01:21:11,0.21,3.57,0.00,14.15,18.46,22.38,14.97,50.50,1007.35,2068.13,2378.73,2294.15,2604.88,599.94,608.74,16.39,0000 0000 0000 0000 000000
2016-01-31 01:26:12,0.21,3.58,0.00,14.14,18.47,22.40,14.98,50.39,1007.36,2068.06,2375.91,2292.05,2602.46,600.03,608.92,16.44,0000 0000 0000 0000 000000
2016-01-31 01:31:13,0.22,3.60,0.00,14.13,18.48,22.37,15.01,50.43,1007.36,2068.04,2373.05,2289.87,2600.00,600.48,609.15,16.49,0000 0000 0000 0000 000000
2016-01-31 01:36:14,0.21,3.61,0.00,14.14,18.49,22.41,15.02,50.46,1007.34,2068.02,2370.31,2287.82,2597.62,600.08,608.99,16.54,0000 0000 0000 0000 000000
2016-01-31 01:41:16,0.21,3.62,0.00,14.17,18.49,22.40,15.00,50.36,1007.34,2068.01,2367.65,2285.75,2595.26,600.31,609.09,16.59,0000 0000 0000 0000 000000
2016-01-31 01:46:17,0.20,3.63,0.00,14.14,18.50,22.39,14.95,50.35,1007.34,2068.01,2365.10,2283.75,2593.00,600.01,608.89,16.64,0000 0000 0000 0000 000000
2016-01-31 01:51:19,0.21,3.64,0.00,14.12,18.52,22.41,14.96,50.45,1007.35,2068.00,2362.39,2281.72,2590.66,600.28,609.07,16.69,0000 0000 0000 0000 000000
2016-01-31 01:56:20,0.22,3.65,0.00,14.14,18.52,22.39,14.96,50.44,1007.35,2068.00,2359.63,2279.59,2588.19,600.31,609.11,16.74,0000 0000 0000 0000 000000
2016-01-31 02:01:21,0.20,3.66,0.00,14.16,18.54,22.45,14.91,50.55,1007.34,2068.00,2357.11,2277.61,2585.91,599.76,608.48,16.79,0000 0000 0000 0000 000000
2016-01-31 02:06:22,0.20,3.67,0.00,14.13,18.54,22.40,14.95,50.58,1007.34,2068.00,2354.59,2275.67,2583.69,599.95,608.81,16.84,0000 0000 0000 0000 000000
2016-01-31 02:11:24,0.21,3.68,0.00,14.15,18.54,22.42,14.90,50.55,1007.34,2067.99,2351.97,2273.65,2581.36,600.14,609.00,16.89,0000 0000 0000 0000 000000
2016-01-31 02:16:25,0.20,3.69,0.00,14.15,18.55,22.43,14.93,50.39,1007.34,2067.99,2349.34,2271.67,2579.10,600.16,609.04,16.94,0000 0000 0000 0000 000000
2016-01-31 02:21:26,0.21,3.70,0.00,14.13,18.55,22.43,14.98,50.57,1007.34,2067.98,2346.73,2269.67,2576.84,600.12,608.94,16.99,0000 0000 0000 0000 000000
2016-01-31 02:26:27,0.21,3.71,0.00,14.17,18.55,22.46,14.93,50.65,1007.34,2067.98,2344.00,2267.63,2574.50,599.80,608.63,17.04,0000 0000 0000 0000 000000
2016-01-31 02:31:28,0.21,3.73,0.00,14.16,18.55,22.44,15.02,50.74,1007.33,2067.98,2341.39,2265.62,2572.22,600.45,609.21,17.09,0000 0000 0000 0000 000000
2016-01-31 02:36:30,0.20,3.74,0.00,14.16,18.55,22.45,14.95,50.57,1007.34,2067.97,2338.94,2263.75,2570.04,600.01,608.78,17.14,0000 0000 0000 0000 000000
2016-01-31 02:41:31,0.20,3.75,0.00,14.16,18.55,22.45,14.89,50.33,1007.34,2067.98,2336.41,2261.85,2567.93,599.57,608.33,17.19,0000 0000 0000 0000 000000
2016-01-31 02:46:33,0.20,3.76,0.00,14.13,18.55,22.42,14.90,50.48,1007.34,2067.98,2333.80,2259.88,2565.66,599.67,608.51,17.24,0000 0000 0000 0000 000000
2016-01-31 02:51:34,0.21,3.77,0.00,14.16,18.55,22.45,14.94,50.42,1007.34,2067.97,2331.25,2257.93,2563.44,599.78,608.69,17.29,0000 0000 0000 0000 000000
2016-01-31 02:56:35,0.21,3.78,0.00,14.14,18.55,22.48,14.92,50.38,1007.34,2067.98,2328.60,2255.97,2561.19,599.95,608.75,17.34,0000 0000 0000 0000 000000
2016-01-31 03:01:37,0.20,3.79,0.00,14.13,18.55,22.46,14.98,50.40,1007.34,2067.99,2326.07,2254.09,2559.16,600.15,609.00,17.39,0000 0000 0000 0000 000000
2016-01-31 03:06:38,0.21,3.80,0.00,14.14,18.55,22.42,14.92,50.26,1007.34,2067.98,2323.43,2252.10,2557.07,600.09,608.85,17.44,0000 0000 0000 0000 000000
2016-01-31 03:11:39,0.21,3.81,0.00,14.17,18.56,22.40,14.92,50.25,1007.29,2067.97,2320.87,2250.15,2554.77,599.80,608.56,17.49,0000 0000 0000 0000 000000
2016-01-31 03:16:41,0.21,3.82,0.00,14.16,18.57,22.43,14.94,50.47,1007.23,2067.97,2318.32,2248.22,2552.61,599.82,608.52,17.54,0000 0000 0000 0000 000000
2016-01-31 03:21:42,0.20,3.83,0.00,14.15,18.57,22.42,14.97,50.58,1007.12,2067.98,2315.85,2246.29,2550.43,599.99,608.73,17.59,0000 0000 0000 0000 000000
2016-01-31 03:26:43,0.19,3.84,0.00,14.18,18.57,22.44,14.89,50.53,1007.07,2067.97,2313.46,2244.49,2548.33,600.00,608.39,17.64,0000 0000 0000 0000 000000
2016-01-31 03:31:44,0.21,3.85,0.00,14.18,18.57,22.44,14.91,50.33,1006.99,2067.98,2311.01,2242.67,2546.21,600.12,608.57,17.69,0000 0000 0000 0000 000000
2016-01-31 03:36:45,0.21,3.86,0.00,14.20,18.57,22.44,14.92,50.53,1006.95,2067.97,2308.42,2240.75,2544.05,599.81,608.23,17.75,0000 0000 0000 0000 000000
2016-01-31 03:41:46,0.20,3.87,0.00,14.20,18.57,22.43,14.96,50.63,1006.86,2067.97,2305.85,2238.95,2541.79,599.90,608.34,17.80,0000 0000 0000 0000 000000
2016-01-31 03:46:48,0.21,3.88,0.00,14.21,18.57,22.42,14.96,50.64,1006.89,2067.94,2303.25,2236.99,2539.47,600.11,608.53,17.85,0000 0000 0000 0000 000000
2016-01-31 03:51:49,0.22,3.89,0.00,14.22,18.57,22.48,14.95,50.38,1007.18,2067.97,2300.72,2234.99,2537.28,599.86,608.49,17.90,0000 0000 0000 0000 000000
2016-01-31 03:56:50,0.21,3.90,0.00,14.23,18.57,22.43,14.94,50.42,1007.28,2067.93,2298.14,2233.06,2535.08,600.14,608.73,17.95,0000 0000 0000 0000 000000
2016-01-31 04:01:51,0.21,3.91,0.00,14.20,18.58,22.45,14.92,50.48,1007.31,2067.94,2295.60,2231.12,2532.82,599.87,608.58,18.00,0000 0000 0000 0000 000000
2016-01-31 04:06:53,0.21,3.92,0.00,14.22,18.59,22.48,14.93,50.50,1007.34,2067.88,2293.06,2229.14,2530.56,599.89,608.66,18.05,0000 0000 0000 0000 000000
2016-01-31 04:11:54,0.18,3.94,0.00,14.23,18.59,22.49,14.91,50.53,1007.34,2067.80,2290.56,2227.20,2528.36,600.15,608.64,18.10,0000 0000 0000 0000 000000
2016-01-31 04:16:55,0.20,3.95,0.00,14.22,18.59,22.53,14.95,50.53,1007.34,2067.66,2288.02,2225.24,2526.05,600.01,608.73,18.15,0000 0000 0000 0000 000000
2016-01-31 04:21:56,0.20,3.95,0.00,14.21,18.59,22.47,14.99,50.33,1007.34,2067.40,2285.31,2223.19,2523.75,600.16,608.82,18.20,0000 0000 0000 0000 000000
2016-01-31 04:26:58,0.20,3.97,0.00,14.23,18.59,22.49,14.91,50.40,1007.32,2067.47,2282.68,2221.23,2521.51,599.67,608.28,18.25,0000 0000 0000 0000 000000
2016-01-31 04:31:59,0.20,3.98,0.00,14.24,18.61,22.47,14.95,50.58,1007.30,2067.24,2280.06,2219.22,2519.20,599.85,608.32,18.30,0000 0000 0000 0000 000000
2016-01-31 04:37:01,0.20,3.99,0.00,14.26,18.62,22.51,14.95,50.65,1007.32,2067.25,2277.52,2217.27,2516.96,600.04,608.56,18.35,0000 0000 0000 0000 000000
2016-01-31 04:42:02,0.21,4.00,0.00,14.28,18.62,22.48,14.96,50.64,1007.31,2067.11,2274.97,2215.25,2514.64,599.84,608.37,18.40,0000 0000 0000 0000 000000
2016-01-31 04:47:03,0.21,4.01,0.00,14.27,18.62,22.51,14.96,50.57,1007.24,2067.06,2272.35,2213.21,2512.35,600.02,608.48,18.45,0000 0000 0000 0000 000000
2016-01-31 04:52:04,0.23,4.02,0.00,14.27,18.62,22.54,14.91,50.36,1007.24,2067.10,2269.53,2211.23,2510.04,600.34,608.86,18.50,0000 0000 0000 0000 000000
2016-01-31 04:57:06,0.23,4.03,0.00,14.28,18.62,22.48,14.93,50.24,1007.28,2067.05,2266.68,2209.06,2507.68,600.00,608.56,18.55,0000 0000 0000 0000 000000
2016-01-31 05:02:07,0.22,4.04,0.00,14.27,18.64,22.52,14.98,50.37,1007.34,2067.03,2263.93,2206.98,2505.31,600.01,608.55,18.60,0000 0000 0000 0000 000000
2016-01-31 05:07:08,0.21,4.05,0.00,14.27,18.64,22.52,15.01,50.68,1007.32,2067.03,2261.36,2205.00,2503.11,600.11,608.64,18.65,0000 0000 0000 0000 000000
2016-01-31 05:12:10,0.23,4.07,0.00,14.27,18.64,22.53,15.00,50.65,1007.34,2067.03,2258.72,2202.97,2500.80,600.07,608.58,18.70,0000 0000 0000 0000 000000
2016-01-31 05:17:11,0.23,4.08,0.00,14.29,18.65,22.50,14.97,50.42,1007.34,2067.03,2255.87,2200.84,2498.31,600.10,608.56,18.75,0000 0000 0000 0000 000000
2016-01-31 05:22:12,0.23,4.09,0.00,14.30,18.66,22.54,14.94,50.56,1007.34,2067.02,2253.10,2198.70,2495.96,600.05,608.47,18.80,0000 0000 0000 0000 000000
2016-01-31 05:27:13,0.23,4.10,0.00,14.29,18.67,22.55,14.97,50.56,1007.34,2067.01,2250.41,2196.57,2493.69,599.98,608.41,18.85,0000 0000 0000 0000 000000
2016-01-31 05:32:14,0.23,4.11,0.00,14.31,18.67,22.55,14.95,50.41,1007.36,2067.01,2247.62,2194.40,2491.36,599.73,608.19,18.90,0000 0000 0000 0000 000000
2016-01-31 05:37:15,0.24,4.13,0.00,14.31,18.67,22.56,14.93,50.25,1007.36,2067.01,2244.66,2192.28,2488.90,600.13,608.65,18.95,0000 0000 0000 0000 000000
2016-01-31 05:42:17,0.24,4.14,0.00,14.29,18.67,22.55,14.98,50.44,1007.35,2067.01,2241.80,2190.08,2486.44,599.78,608.34,19.00,0000 0000 0000 0000 000000
2016-01-31 05:47:18,0.22,4.15,0.00,14.31,18.69,22.60,14.93,50.47,1007.34,2067.01,2239.29,2188.07,2484.11,600.06,608.45,19.05,0000 0000 0000 0000 000000
2016-01-31 05:52:19,0.25,4.16,0.00,14.29,18.69,22.64,14.87,50.32,1007.34,2067.00,2236.55,2185.88,2481.65,600.16,608.65,19.10,0000 0000 0000 0000 000000
2016-01-31 05:57:21,0.23,4.18,0.00,14.30,18.69,22.61,14.95,50.43,1007.34,2067.00,2233.74,2183.77,2479.27,599.79,608.23,19.15,0000 0000 0000 0000 000000
2016-01-31 06:02:22,0.24,4.19,0.00,14.32,18.69,22.59,14.97,50.63,1007.34,2067.00,2230.95,2181.61,2476.84,600.14,608.58,19.20,0000 0000 0000 0000 000000
2016-01-31 06:07:23,0.23,4.20,0.00,14.32,18.70,22.61,14.97,50.69,1007.34,2067.00,2228.39,2179.56,2474.49,599.92,608.38,19.25,0000 0000 0000 0000 000000
2016-01-31 06:12:24,0.24,4.21,0.00,14.33,18.72,22.64,14.93,50.58,1007.34,2067.00,2225.66,2177.42,2472.04,599.95,608.35,19.30,0000 0000 0000 0000 000000
2016-01-31 06:17:26,0.23,4.22,0.00,14.35,18.72,22.65,14.93,50.43,1007.34,2067.00,2222.92,2175.36,2469.68,600.17,608.53,19.35,0000 0000 0000 0000 000000
2016-01-31 06:22:27,0.25,4.23,0.00,14.36,18.72,22.65,14.93,50.49,1007.35,2066.99,2220.02,2173.26,2467.22,600.15,608.50,19.40,0000 0000 0000 0000 000000
2016-01-31 06:27:29,0.23,4.25,0.00,14.38,18.72,22.62,15.02,50.68,1007.34,2066.99,2217.28,2171.13,2464.78,600.20,608.52,19.45,0000 0000 0000 0000 000000
2016-01-31 06:32:30,0.25,4.26,0.00,14.38,18.73,22.65,14.95,50.41,1007.34,2066.98,2214.55,2168.99,2462.28,600.11,608.33,19.50,0000 0000 0000 0000 000000
2016-01-31 06:37:31,0.25,4.27,0.00,14.37,18.74,22.66,14.99,50.60,1007.34,2066.99,2211.62,2166.81,2459.78,600.11,608.43,19.55,0000 0000 0000 0000 000000
2016-01-31 06:42:33,0.23,4.29,0.00,14.37,18.74,22.64,14.90,50.48,1007.34,2066.98,2208.86,2164.68,2457.37,600.00,608.36,19.60,0000 0000 0000 0000 000000
2016-01-31 06:47:34,0.24,4.30,0.00,14.37,18.74,22.61,14.90,50.64,1007.34,2066.98,2206.18,2162.60,2455.01,599.86,608.26,19.65,0000 0000 0000 0000 000000
2016-01-31 06:52:35,0.24,4.31,0.00,14.40,18.74,22.61,14.89,50.63,1007.34,2066.98,2203.46,2160.48,2452.57,600.09,608.36,19.70,0000 0000 0000 0000 000000
2016-01-31 06:57:37,0.25,4.32,0.00,14.43,18.75,22.63,14.94,50.42,1007.34,2066.97,2200.69,2158.37,2450.18,600.28,608.49,19.75,0000 0000 0000 0000 000000
2016-01-31 07:02:38,0.24,4.33,0.00,14.43,18.77,22.66,14.85,50.38,1007.34,2066.97,2197.81,2156.20,2447.70,599.57,607.77,19.80,0000 0000 0000 0000 000000
2016-01-31 07:07:40,0.25,4.35,0.00,14.44,18.77,22.71,14.93,50.38,1007.36,2066.94,2194.93,2153.99,2445.24,600.10,608.35,19.85,0000 0000 0000 0000 000000
2016-01-31 07:12:41,0.23,4.36,0.00,14.43,18.77,22.65,14.92,50.42,1007.38,2066.91,2192.21,2151.92,2442.84,599.83,608.04,19.90,0000 0000 0000 0000 000000
2016-01-31 07:17:43,0.22,4.37,0.00,14.44,18.79,22.66,14.93,50.56,1007.35,2066.81,2189.49,2149.82,2440.42,599.97,608.08,19.95,0000 0000 0000 0000 000000
2016-01-31 07:22:44,0.19,4.38,0.00,14.43,18.79,22.69,15.02,50.50,1007.36,2066.45,2186.75,2147.68,2438.02,600.10,608.48,20.00,0000 0000 0000 0000 000000
2016-01-31 07:27:45,0.27,4.39,0.00,14.47,18.79,22.65,14.92,50.49,1007.37,2066.57,2184.01,2145.64,2435.69,600.23,608.32,20.05,0000 0000 0000 0000 000000
2016-01-31 07:32:46,0.21,4.41,0.00,14.51,18.81,22.70,14.94,50.55,1007.36,2066.34,2181.36,2143.55,2433.29,600.18,608.22,20.10,0000 0000 0000 0000 000000
2016-01-31 07:37:48,0.22,4.42,0.00,14.49,18.82,22.75,14.86,50.58,1007.36,2066.18,2178.63,2141.43,2430.97,599.80,607.89,20.15,0000 0000 0000 0000 000000
2016-01-31 07:42:49,0.23,4.43,0.00,14.48,18.82,22.71,14.94,50.60,1007.34,2066.09,2175.94,2139.36,2428.62,599.93,608.03,20.20,0000 0000 0000 0000 000000
2016-01-31 07:47:50,0.23,4.44,0.00,14.49,18.82,22.73,14.96,50.61,1007.34,2066.12,2173.37,2137.28,2426.30,600.16,608.30,20.25,0000 0000 0000 0000 000000
2016-01-31 07:52:51,0.25,4.45,0.00,14.50,18.82,22.68,14.89,50.56,1007.38,2066.08,2170.61,2135.20,2423.91,599.74,607.80,20.30,0000 0000 0000 0000 000000
2016-01-31 07:57:53,0.24,4.47,0.00,14.56,18.84,22.72,14.94,50.58,1007.37,2066.05,2167.89,2133.11,2421.48,599.80,607.82,20.35,0000 0000 0000 0000 000000
2016-01-31 08:02:54,0.26,4.48,0.00,14.57,18.84,22.76,14.91,50.72,1007.34,2066.02,2165.14,2130.96,2419.11,600.00,607.85,20.40,0000 0000 0000 0000 000000
2016-01-31 08:07:55,0.24,4.49,0.00,14.58,18.84,22.78,14.90,50.61,1007.34,2066.01,2162.45,2128.87,2416.72,600.06,607.89,20.45,0000 0000 0000 0000 000000
2016-01-31 08:12:56,0.24,4.50,0.00,14.55,18.85,22.80,14.98,50.53,1007.34,2066.02,2159.77,2126.80,2414.34,599.91,607.84,20.50,0000 0000 0000 0000 000000
2016-01-31 08:17:58,0.24,4.52,0.00,14.54,18.87,22.83,14.90,50.48,1007.29,2066.00,2157.11,2124.78,2412.03,599.94,607.88,20.55,0000 0000 0000 0000 000000
2016-01-31 08:22:59,0.24,4.53,0.00,14.55,18.87,22.75,14.97,50.69,1007.22,2066.00,2154.46,2122.69,2409.66,600.19,608.08,20.60,0000 0000 0000 0000 000000
2016-01-31 08:28:00,0.24,4.54,0.00,14.58,18.87,22.77,14.90,50.60,1007.32,2066.00,2151.90,2120.66,2407.36,599.95,607.83,20.65,0000 0000 0000 0000 000000
2016-01-31 08:33:02,0.23,4.55,0.00,14.56,18.87,22.81,14.92,50.61,1007.32,2066.00,2149.38,2118.71,2405.14,600.15,608.08,20.70,0000 0000 0000 0000 000000
2016-01-31 08:38:03,0.24,4.56,0.00,14.53,18.89,22.79,14.90,50.48,1007.34,2066.00,2146.81,2116.74,2402.91,599.95,607.87,20.75,0000 0000 0000 0000 000000
2016-01-31 08:43:04,0.24,4.57,0.00,14.55,18.89,22.76,14.89,50.47,1007.35,2065.99,2144.15,2114.72,2400.64,599.80,607.67,20.80,0000 0000 0000 0000 000000
2016-01-31 08:48:06,0.25,4.59,0.00,14.54,18.89,22.81,14.93,50.43,1007.43,2065.99,2141.39,2112.67,2398.29,599.85,607.87,20.85,0000 0000 0000 0000 000000
2016-01-31 08:53:07,0.24,4.60,0.00,14.55,18.89,22.81,15.02,50.44,1007.76,2065.99,2138.67,2110.77,2395.97,600.22,608.35,20.90,0000 0000 0000 0000 000000
2016-01-31 08:58:09,0.24,4.61,0.00,14.55,18.89,22.86,14.98,50.47,1007.83,2065.99,2136.00,2108.78,2393.66,600.25,608.48,20.95,0000 0000 0000 0000 000000
2016-01-31 09:03:10,0.23,4.62,0.00,14.53,18.90,22.86,14.97,50.54,1007.82,2065.99,2133.46,2106.81,2391.41,599.83,608.02,21.00,0000 0000 0000 0000 000000
2016-01-31 09:08:11,0.25,4.64,0.00,14.55,18.91,22.81,14.94,50.69,1007.82,2065.99,2130.85,2104.78,2389.07,600.27,608.47,21.05,0000 0000 0000 0000 000000
2016-01-31 09:13:12,0.23,4.65,0.00,14.56,18.92,22.79,14.98,50.69,1007.82,2065.99,2128.27,2102.76,2386.74,600.16,608.30,21.10,0000 0000 0000 0000 000000
2016-01-31 09:18:14,0.24,4.66,0.00,14.56,18.92,22.80,15.03,50.68,1007.83,2065.97,2125.65,2100.74,2384.46,600.13,608.21,21.15,0000 0000 0000 0000 000000
2016-01-31 09:23:15,0.25,4.67,0.00,14.56,18.92,22.79,14.96,50.52,1007.83,2065.97,2122.98,2098.66,2382.11,600.16,608.41,21.20,0000 0000 0000 0000 000000
2016-01-31 09:28:17,0.24,4.69,0.00,14.54,18.92,22.82,15.00,50.50,1007.83,2065.98,2120.29,2096.66,2379.83,599.95,608.13,21.25,0000 0000 0000 0000 000000
2016-01-31 09:33:18,0.23,4.70,0.00,14.54,18.92,22.78,14.97,50.45,1007.83,2065.97,2117.70,2094.68,2377.58,600.06,608.29,21.30,0000 0000 0000 0000 000000
2016-01-31 09:38:19,0.23,4.71,0.00,14.54,18.92,22.80,14.95,50.45,1007.83,2065.96,2115.19,2092.75,2375.36,600.10,608.42,21.35,0000 0000 0000 0000 000000
2016-01-31 09:43:21,0.23,4.72,0.00,14.57,18.93,22.83,14.86,50.52,1007.83,2065.97,2112.72,2090.85,2373.20,599.73,607.91,21.41,0000 0000 0000 0000 000000
2016-01-31 09:48:22,0.22,4.73,0.00,14.56,18.94,22.87,14.94,50.60,1007.80,2065.96,2110.46,2088.97,2371.07,599.88,608.07,21.46,0000 0000 0000 0000 000000
2016-01-31 09:53:24,0.22,4.75,0.00,14.53,18.94,22.83,14.96,50.53,1007.82,2065.96,2108.20,2087.13,2368.96,599.94,608.26,21.51,0000 0000 0000 0000 000000
2016-01-31 09:58:25,0.23,4.76,0.00,14.56,18.94,22.82,14.96,50.60,1007.78,2065.96,2105.74,2085.20,2366.87,600.20,608.47,21.56,0000 0000 0000 0000 000000
2016-01-31 10:03:26,0.24,4.77,0.00,14.59,18.94,22.81,15.00,50.57,1007.82,2065.97,2103.23,2083.25,2364.74,600.35,608.43,21.61,0000 0000 0000 0000 000000
2016-01-31 10:08:28,0.24,4.78,0.00,14.59,18.94,22.86,15.02,50.64,1007.82,2065.93,2100.60,2081.28,2362.47,600.05,608.18,21.66,0000 0000 0000 0000 000000
2016-01-31 10:13:29,0.23,4.79,0.00,14.61,18.94,22.85,14.96,50.49,1007.75,2065.92,2098.17,2079.37,2360.31,599.99,608.02,21.71,0000 0000 0000 0000 000000
2016-01-31 10:18:31,0.23,4.80,0.00,14.59,18.94,22.88,14.96,50.58,1007.71,2065.88,2095.72,2077.48,2358.16,600.01,608.12,21.76,0000 0000 0000 0000 000000
2016-01-31 10:23:32,0.23,4.81,0.00,14.57,18.94,22.79,14.95,50.69,1007.58,2065.93,2093.32,2075.66,2356.07,599.86,607.92,21.81,0000 0000 0000 0000 000000
2016-01-31 10:28:33,0.21,4.83,0.00,14.58,18.94,22.83,14.88,50.68,1007.42,2065.79,2090.90,2073.77,2353.95,599.93,607.94,21.86,0000 0000 0000 0000 000000
2016-01-31 10:33:35,0.24,4.84,0.00,14.61,18.94,22.83,14.95,50.77,1007.46,2065.78,2088.42,2071.88,2351.79,600.29,608.13,21.91,0000 0000 0000 0000 000000
2016-01-31 10:38:36,0.23,4.85,0.00,14.59,18.94,22.86,14.91,50.77,1007.56,2065.81,2085.99,2070.02,2349.63,600.09,608.05,21.96,0000 0000 0000 0000 000000
2016-01-31 10:43:37,0.20,4.86,0.00,14.60,18.94,22.88,14.89,50.78,1007.76,2065.56,2083.45,2068.07,2347.36,600.03,608.14,22.01,0000 0000 0000 0000 000000
2016-01-31 10:48:39,0.24,4.87,0.00,14.55,18.94,22.89,14.98,50.60,1007.83,2065.53,2081.08,2066.15,2345.20,600.28,608.46,22.06,0000 0000 0000 0000 000000
2016-01-31 10:53:40,0.24,4.89,0.00,14.54,18.94,22.88,14.87,50.44,1007.83,2065.64,2078.54,2064.34,2343.11,599.67,607.94,22.11,0000 0000 0000 0000 000000
2016-01-31 10:58:42,0.25,4.90,0.00,14.56,18.94,22.86,15.03,50.62,1007.85,2065.77,2076.03,2062.45,2341.00,600.24,608.56,22.16,0000 0000 0000 0000 000000
2016-01-31 11:03:43,0.24,4.91,0.00,14.58,18.94,22.86,14.94,50.50,1007.88,2065.91,2073.73,2060.71,2338.96,600.08,608.32,22.21,0000 0000 0000 0000 000000
2016-01-31 11:08:45,0.22,4.92,0.00,14.59,18.94,22.83,14.90,50.73,1007.85,2065.94,2071.45,2058.96,2336.94,599.98,608.25,22.26,0000 0000 0000 0000 000000
2016-01-31 11:13:46,0.23,4.93,0.00,14.61,18.95,22.89,14.91,50.73,1007.83,2065.83,2069.05,2056.99,2334.68,600.16,608.25,22.31,0000 0000 0000 0000 000000
2016-01-31 11:18:47,0.21,4.95,0.00,14.61,18.96,22.85,14.97,50.77,1007.83,2065.67,2066.69,2055.05,2332.46,600.14,608.25,22.36,0000 0000 0000 0000 000000
2016-01-31 11:23:48,0.22,4.96,0.00,14.60,18.96,22.89,14.94,50.83,1007.84,2065.62,2064.37,2053.30,2330.42,599.95,608.08,22.41,0000 0000 0000 0000 000000
2016-01-31 11:28:50,0.25,4.97,0.00,14.57,18.96,22.84,15.01,50.66,1007.84,2065.63,2061.88,2051.38,2328.30,600.21,608.38,22.46,0000 0000 0000 0000 000000
2016-01-31 11:33:51,0.21,4.98,0.00,14.60,18.96,22.84,14.92,50.60,1007.85,2065.39,2059.35,2049.44,2326.11,599.95,608.10,22.51,0000 0000 0000 0000 000000
2016-01-31 11:38:52,0.26,4.99,0.00,14.62,18.97,22.83,14.93,50.44,1007.84,2065.55,2056.94,2047.63,2324.07,600.11,608.21,22.56,0000 0000 0000 0000 000000
2016-01-31 11:43:54,0.20,5.00,0.00,14.62,18.97,22.86,14.93,50.48,1007.83,2065.59,2054.59,2046.15,2322.07,599.99,608.06,22.61,0000 0000 0000 0000 000000
2016-01-31 11:48:55,0.24,5.01,0.00,14.60,18.97,22.89,14.90,50.50,1007.84,2065.61,2052.16,2044.34,2320.02,599.61,607.81,22.66,0000 0000 0000 0000 000000
2016-01-31 11:53:56,0.22,5.03,0.00,14.61,18.97,22.88,14.98,50.56,1007.85,2065.59,2049.77,2042.62,2317.90,600.19,608.42,22.71,0000 0000 0000 0000 000000
2016-01-31 11:58:58,0.23,5.04,0.00,14.62,18.97,22.87,14.93,50.67,1007.84,2065.54,2047.61,2040.87,2315.94,600.01,608.11,22.76,0000 0000 0000 0000 000000
2016-01-31 12:03:59,0.16,5.05,0.00,14.62,18.97,22.86,15.02,50.83,1007.83,2065.45,2045.76,2039.17,2313.95,600.14,608.23,22.81,0000 0000 0000 0000 000000
2016-01-31 12:09:00,0.21,5.06,0.00,14.64,18.98,22.89,14.98,50.83,1007.83,2065.19,2043.53,2037.32,2311.90,600.24,608.32,22.86,0000 0000 0000 0000 000000
2016-01-31 12:14:02,0.21,5.07,0.00,14.63,18.99,22.90,14.98,50.92,1007.83,2065.14,2041.28,2035.58,2309.85,600.34,608.40,22.91,0000 0000 0000 0000 000000
2016-01-31 12:19:03,0.22,5.08,0.00,14.65,18.99,22.90,15.00,50.94,1007.83,2065.11,2039.19,2033.93,2307.87,600.06,608.06,22.96,0000 0000 0000 0000 000000
2016-01-31 12:24:05,0.20,5.09,0.00,14.64,18.99,22.84,14.95,50.97,1007.76,2065.06,2037.00,2032.28,2305.94,600.21,608.21,23.01,0000 0000 0000 0000 000000
2016-01-31 12:29:06,0.24,5.10,0.00,14.59,18.98,22.84,14.92,50.91,1007.62,2065.06,2034.60,2030.43,2303.96,599.85,607.95,23.06,0000 0000 0000 0000 000000
2016-01-31 12:34:07,0.24,5.11,0.00,14.59,18.97,22.89,14.92,50.84,1007.39,2065.04,2032.05,2028.50,2301.87,599.92,607.81,23.11,0000 0000 0000 0000 000000
2016-01-31 12:39:08,0.22,5.12,0.00,14.60,18.97,22.89,14.94,50.88,1007.35,2065.06,2029.86,2026.79,2299.98,600.14,607.91,23.16,0000 0000 0000 0000 000000
2016-01-31 12:44:10,0.22,5.13,0.00,14.62,18.97,22.87,14.94,50.90,1007.37,2065.03,2027.61,2025.04,2297.99,600.06,607.97,23.21,0000 0000 0000 0000 000000
2016-01-31 12:49:11,0.22,5.15,0.00,14.61,18.97,22.83,14.98,50.85,1007.36,2065.04,2025.29,2023.32,2295.97,600.12,607.92,23.26,0000 0000 0000 0000 000000
2016-01-31 12:54:12,0.24,5.16,0.00,14.58,18.97,22.85,14.92,50.97,1007.35,2065.04,2022.96,2021.50,2293.89,600.01,607.88,23.31,0000 0000 0000 0000 000000